Temp_Advection
nan nan nan nan nan nan nan nan nan nan nan nan nan nan nan nan nan nan nan nan nan nan nan nan nan nan nan nan nan nan nan nan nan nan nan nan nan nan nan nan nan nan nan nan nan
nan 0 0 0 0 0 0 0 0 0 0 -0 -0 -0 -0 -0 -0 -0 -0 -0 0 -0 -0 -0 0 0 -0 -0 -0 -0 0 -0 -0 -0 -0 -0 0 -0 0 0 -0 -0 0 0 nan
nan 0 0 0 0 -0 -0 -0 -0 0 0 -0 -0 -0 -0 -0 -0 0 -0 0 0 0 -0 -0 0 -0 -0 -0 -0 -0 -0 -0 -0 -0 -0 -0 -0 -0 -0 -0 -0 -1 -1 -0 nan
nan 0 0 0 -0 -0 -0 -0 -0 -0 -0 -0 -0 -0 -0 0 0 0 -0 -0 0 0 0 0 0 0 0 -0 -0 -0 -1 -0 0 -0 -0 -0 0 -0 -0 -0 -0 -1 -1 -1 nan
nan 0 0 0 -0 -0 -0 -0 -0 -0 -0 -0 -0 -0 0 0 0 0 0 -0 -0 0 0 0 0 0 0 0 -0 -0 -0 -0 -0 -0 -0 -0 -0 -0 0 0 0 0 0 -0 nan
nan 0 0 0 0 -0 -0 -0 -0 -0 -0 -0 -0 -0 0 -0 0 0 0 0 -0 0 0 -0 0 0 0 -0 -0 0 0 -0 0 0 -0 -0 -0 0 -0 -0 1 1 1 0 nan
nan 0 -0 0 0 -0 -0 -0 -0 -0 -0 -0 -0 -0 -0 -0 -0 -0 0 0 -0 0 0 0 0 0 0 -0 -0 -0 -0 -0 -0 0 0 0 0 0 0 -0 0 1 1 1 nan
nan -0 -0 -0 -0 -0 -0 -0 -0 -0 -0 -0 -0 -0 -0 -0 -0 -0 -0 0 0 -0 0 0 0 -0 -0 -0 -1 -1 -0 0 -0 -0 -0 -0 0 -0 0 -0 -0 0 1 1 nan
nan -0 -0 -0 -0 -0 -0 -0 -0 0 0 0 0 0 -0 -0 -0 -0 -0 -0 -0 -0 0 0 0 -0 -1 -1 -0 -0 -0 -0 -0 0 -0 0 0 0 0 -0 -1 -1 -0 -0 nan
nan -0 -0 -0 -0 0 0 0 0 0 0 -0 -0 -0 -0 0 -0 -0 -0 -0 -0 -0 -0 -0 -1 -1 -0 0 -0 0 -0 -0 -0 0 -0 0 0 0 0 -0 -1 -1 -1 -1 nan
nan -0 -0 -0 0 0 0 0 -0 0 -0 -0 -0 -0 -0 0 -0 -0 0 0 -0 -0 -0 -1 -0 -0 -0 -0 -0 0 -0 -0 -0 -0 -0 0 0 -0 0 -0 -0 -0 -1 -1 nan
nan -0 -0 -0 0 0 -0 -0 -0 -0 -0 -0 -0 -0 -0 -0 0 0 0 -0 -0 0 -0 -0 -0 -0 -0 0 0 -0 -0 0 -0 -0 -0 -0 0 -0 -0 -1 -0 -0 -1 -1 nan
nan -0 -0 -0 -0 -0 -0 0 0 0 0 -0 -0 -0 -0 -0 0 -0 -0 -0 -0 -0 -0 -0 -0 -0 -0 0 0 0 -0 -0 0 -0 -0 -0 -0 -0 0 0 0 -0 -0 -0 nan
nan -0 -0 -0 0 -0 0 0 0 0 0 -0 -0 -0 -0 0 -0 0 -0 -0 -0 0 0 -0 -0 0 -0 0 -0 -0 -0 -0 -0 -0 0 -0 0 -0 -0 0 -0 -1 -0 -0 nan
nan -0 -0 -0 0 0 0 0 0 0 0 -0 -0 0 0 0 0 0 0 0 -0 0 -0 -0 -0 -0 -0 0 -0 -0 -0 -0 -0 -0 -0 0 -0 -0 -0 0 0 -1 -1 -1 nan
nan -0 -0 -0 -0 0 -0 0 0 -0 -0 -0 -0 0 0 0 0 0 0 0 -0 -0 0 -0 -0 0 -0 -0 0 0 -0 -1 -0 0 0 -0 -0 -0 -0 -0 -0 -0 0 -1 nan
nan -0 -0 -0 -0 -0 -0 0 -0 0 -0 0 0 0 0 0 0 0 0 0 0 0 -0 -0 -0 -0 -0 -0 -0 -1 -1 -0 1 0 -0 0 0 -1 -0 0 0 -1 -3 -0 nan
nan -0 -0 -0 -0 -0 -0 -0 -0 -0 -0 -0 -0 0 -0 0 0 -0 -0 0 0 -0 0 0 -0 -0 -0 0 -0 -0 -0 0 0 0 0 -0 -0 -0 -0 0 -0 -1 -1 1 nan
nan -0 -0 -0 -0 0 0 -0 -0 -0 -0 -0 0 0 0 -0 0 -0 -0 -0 -0 -0 -0 0 -0 -0 0 0 -0 -0 -0 -0 -0 0 0 -0 -1 -1 -0 -0 -1 -1 1 1 nan
nan -0 0 0 0 -0 -1 -0 -0 -0 -0 0 -0 -0 0 -0 0 0 -0 -0 -0 -0 -0 0 0 -0 -0 -0 -0 -0 -0 -0 -0 0 0 0 -0 -0 -1 -0 -0 -0 0 1 nan
nan 0 0 0 1 1 0 -0 -1 -1 -0 0 -0 -0 -0 0 0 0 -0 -0 0 -0 -0 -0 0 -0 -0 -0 -0 -0 -0 -1 -0 0 1 -0 -0 0 0 -0 -0 0 0 0 nan
nan -0 1 0 -1 -0 0 -1 -0 -0 -0 -0 -0 -0 -0 -0 -0 -0 -0 -0 -0 -1 0 -0 0 0 0 -0 -0 0 -0 -0 0 0 -0 0 -1 0 0 -0 0 0 0 0 nan
nan -0 0 -0 -0 -0 -0 -0 -0 -0 -0 0 -0 -0 -0 -0 0 -0 -0 0 -0 -0 -0 -0 -0 0 -0 -0 -0 0 -0 -1 -0 0 -0 0 -0 -0 0 -0 -0 0 0 -0 nan
nan -0 0 0 -0 -0 0 -0 -0 -0 -0 -0 0 -0 -0 -0 -0 0 0 -0 -0 -0 0 -1 -0 0 0 -0 0 0 0 -0 -0 -0 -0 -0 -1 -0 0 -0 -1 -0 0 -0 nan
nan -0 0 0 -0 -0 0 -0 -0 -0 -0 -0 0 0 0 -0 0 -0 0 -0 -0 -0 -1 -0 0 -0 -0 0 -0 0 0 0 -0 -0 -0 0 0 0 0 -1 -2 -0 0 0 nan
nan -0 -0 -0 -0 -0 0 -0 -0 -0 -0 -0 0 0 -0 0 -0 -0 -0 0 0 -0 -1 -0 0 0 0 -0 -0 0 0 0 0 -0 0 0 0 0 -1 -0 -1 0 1 1 nan
nan nan nan nan nan nan nan nan nan nan nan nan nan nan nan nan nan nan nan nan nan nan nan nan nan nan nan nan nan nan nan nan nan nan nan nan nan nan nan nan nan nan nan nan nan
Wind_Speed
5 4 3 3 3 2 2 1 0 2 2 2 1 1 4 4 4 1 1 3 2 2 1 2 5 9 11 7 5 3 4 1 3 5 2 3 3 6 11 17 6 7 6 21 27
5 4 3 3 2 2 2 1 0 2 2 2 2 1 2 4 4 2 3 1 1 1 2 5 6 8 6 6 5 3 2 3 4 4 3 4 3 9 6 17 6 10 10 24 27
5 4 4 3 2 2 2 1 0 1 2 2 2 2 1 2 1 3 3 4 2 1 2 2 6 6 5 5 2 2 3 2 5 6 3 6 1 2 10 5 12 24 27 28 27
5 4 4 3 2 2 2 1 1 2 2 3 3 2 2 2 2 1 1 5 3 2 0 4 5 4 2 2 4 3 10 9 3 5 3 6 1 1 11 4 17 22 28 32 29
5 4 4 3 2 2 2 2 2 2 2 3 3 3 3 2 1 3 4 7 4 3 3 2 4 3 4 4 3 3 3 0 6 3 3 2 2 2 11 0 15 23 30 32 31
5 5 4 3 3 3 3 3 2 2 2 3 4 5 4 3 3 3 7 6 5 4 2 4 3 8 11 7 3 7 3 3 3 3 3 2 2 3 5 13 24 28 34 32 32
6 5 4 4 3 3 3 3 3 2 3 3 4 5 5 4 5 4 5 4 4 3 5 6 8 10 7 4 10 3 2 4 1 4 2 3 2 5 11 20 26 32 36 33 32
6 6 5 4 4 4 3 3 2 1 3 4 4 4 4 7 7 4 3 3 3 5 6 6 13 7 3 8 8 6 5 5 1 10 2 7 7 3 21 27 28 31 35 35 35
6 5 5 4 3 3 3 1 1 1 3 4 4 3 3 8 9 7 4 3 1 3 6 9 7 5 5 4 6 6 4 5 4 6 3 3 5 5 24 24 26 31 31 34 35
6 5 5 4 3 1 1 2 2 2 3 3 3 2 4 3 8 5 6 5 1 5 1 4 6 4 4 6 2 6 6 5 4 5 4 5 9 4 24 21 23 29 29 34 37
6 5 5 4 2 2 4 3 1 0 4 4 2 2 1 1 8 6 8 8 2 2 3 6 6 1 5 3 5 5 3 4 5 4 3 6 8 8 19 19 20 24 29 32 38
6 6 4 3 0 3 6 6 6 2 5 5 10 11 10 5 2 5 9 6 3 2 2 6 2 4 5 4 5 4 1 4 4 2 6 4 10 6 17 27 31 29 31 38 37
7 5 4 2 3 6 9 6 5 3 2 3 5 6 3 6 3 8 12 6 4 3 2 4 5 4 1 4 9 3 1 4 5 2 3 2 8 4 7 14 21 27 35 37 42
7 5 3 2 5 4 6 6 5 1 4 3 3 4 8 5 1 9 12 7 2 6 5 4 3 1 3 3 4 4 3 5 4 4 3 4 4 7 2 8 11 25 30 39 40
7 6 4 7 5 5 0 3 3 1 4 4 4 4 10 6 4 6 14 10 7 4 6 6 2 1 4 5 5 8 4 3 2 2 3 7 4 7 6 6 11 20 31 38 39
8 6 5 6 7 6 1 1 1 5 3 3 6 5 5 2 0 5 6 3 3 4 3 6 3 3 7 2 5 2 1 7 4 3 3 4 4 6 4 6 8 11 25 36 35
7 7 7 8 8 5 3 3 5 3 3 4 4 4 3 4 2 3 5 3 5 4 2 5 4 3 3 1 2 6 7 4 5 5 4 1 2 9 8 8 9 19 18 19 30
7 7 7 8 10 4 4 4 3 3 5 2 4 3 6 5 2 3 5 3 2 5 3 3 6 2 2 2 5 4 6 5 1 1 5 2 3 6 2 15 17 11 11 10 23
6 6 5 8 12 6 3 2 6 5 1 5 4 5 2 1 3 2 6 7 7 8 6 4 4 4 2 2 4 2 4 3 7 2 2 4 7 10 7 12 22 18 8 14 18
4 2 3 9 13 8 4 5 4 4 4 2 5 4 7 4 4 5 6 3 5 13 6 5 2 1 4 3 9 3 6 4 4 1 3 5 5 5 16 15 11 12 10 8 11
0 2 4 14 14 6 3 6 5 8 6 6 5 5 5 6 7 5 6 3 5 5 5 6 3 5 3 4 2 4 3 7 5 3 5 1 6 5 10 9 6 7 6 6 9
1 2 10 20 4 1 3 5 4 5 2 3 4 2 7 6 4 4 8 5 4 10 8 3 5 2 2 4 3 3 3 4 5 4 0 3 5 4 5 10 8 5 3 5 6
2 4 13 5 3 2 4 4 4 3 3 4 2 2 3 4 5 5 4 3 3 4 8 7 2 3 6 6 5 6 2 5 4 3 3 3 5 3 5 10 5 3 1 5 8
1 2 4 5 1 5 0 4 4 4 6 5 2 1 3 4 5 4 3 5 3 5 8 6 4 6 7 6 4 3 3 3 3 3 3 5 6 6 7 7 11 6 5 8 10
0 1 3 3 4 4 2 2 3 5 4 3 1 4 6 3 3 3 3 4 6 3 5 4 4 2 1 3 4 6 4 1 2 2 2 4 5 7 8 9 17 14 11 12 15
1 1 2 3 2 3 4 4 5 4 4 5 3 1 3 6 6 6 5 1 2 6 4 3 2 2 1 3 3 3 6 6 2 3 4 5 6 4 16 16 22 21 15 15 18
2 1 1 1 1 3 4 5 5 3 6 10 6 6 6 6 9 9 4 7 4 4 3 3 5 3 3 2 3 3 6 3 3 2 2 3 6 9 7 8 14 21 15 17 19
Wind_Direction
19 19 21 27 18 21 31 33 164 185 185 214 219 228 235 255 282 277 79 106 68 76 158 262 286 300 320 325 349 13 55 352 175 179 251 144 101 122 139 144 137 150 146 161 160
12 8 14 24 6 16 9 12 173 182 184 196 196 229 237 263 260 220 174 161 16 39 10 356 336 311 319 327 -0 50 84 230 176 153 172 183 133 149 145 159 120 120 143 161 165
3 5 4 4 -0 354 354 335 279 180 185 197 189 207 222 265 261 77 234 252 354 334 65 354 338 348 345 326 304 165 214 261 128 142 153 159 153 153 134 175 176 158 157 168 170
355 357 355 349 351 338 324 308 260 203 194 191 189 197 189 122 144 76 164 206 241 285 262 3 341 337 299 249 242 296 231 244 43 123 124 146 121 86 162 197 201 178 175 172 174
344 348 344 337 337 323 312 300 284 229 202 194 186 188 177 176 97 45 156 171 203 243 261 271 261 312 305 285 126 256 320 161 187 100 162 118 142 206 220 268 176 174 181 176 178
331 336 337 330 324 319 313 299 285 244 218 201 190 188 189 169 141 86 144 172 195 242 293 255 313 318 287 267 216 297 332 307 205 190 142 81 50 174 166 157 158 173 182 182 185
329 332 335 326 321 315 308 297 280 243 207 204 195 200 207 154 165 124 116 161 228 267 289 311 317 319 294 280 332 354 35 338 122 170 123 153 312 227 183 171 162 175 182 189 193
324 329 331 327 321 313 310 297 278 226 202 194 195 205 223 197 202 204 184 172 209 277 284 294 318 305 314 326 5 27 51 11 262 141 274 140 268 232 177 168 165 180 189 195 200
318 324 328 323 322 319 313 282 217 165 182 188 192 185 225 205 226 222 220 177 238 297 311 318 337 14 22 39 16 12 328 349 352 212 106 182 265 174 177 179 167 185 189 200 207
314 322 326 319 330 337 94 120 101 131 168 178 205 212 221 190 217 251 219 217 280 338 355 33 33 41 31 51 314 307 338 334 282 225 191 212 263 161 183 187 193 188 187 204 211
311 315 319 318 348 116 125 133 62 130 248 223 172 280 236 136 200 225 206 214 264 341 32 24 56 279 275 202 220 252 217 237 276 165 122 236 259 225 197 198 202 206 203 204 218
305 307 307 305 131 111 104 100 71 313 315 252 241 257 251 284 170 167 178 159 149 178 30 17 293 230 251 263 216 201 267 304 293 193 170 202 254 212 184 209 204 201 208 215 223
299 295 292 270 179 121 105 65 11 322 208 274 230 243 214 175 182 177 173 162 124 135 96 152 238 301 198 329 10 358 206 264 256 8 62 324 324 307 228 218 212 218 221 220 219
293 283 265 234 171 139 131 24 358 278 65 266 240 213 186 161 251 204 186 169 59 199 164 241 295 5 351 346 103 339 245 269 305 42 292 23 278 303 273 251 222 223 217 224 220
288 274 244 192 170 163 27 10 11 258 85 171 193 196 177 176 145 185 180 185 167 190 104 254 244 317 337 232 165 229 27 38 14 100 68 345 71 268 1 302 271 232 223 226 223
283 264 241 211 185 177 188 118 149 44 184 171 145 158 122 199 137 119 166 165 141 138 347 248 265 217 212 251 184 78 121 43 53 68 40 293 108 285 199 220 273 258 237 231 215
276 256 237 202 179 189 194 171 47 143 358 176 168 150 138 169 220 130 144 144 151 104 314 322 258 279 206 138 58 70 51 348 9 14 212 230 71 243 285 281 259 283 273 243 214
273 254 237 203 193 186 162 56 184 210 205 103 113 97 172 169 191 110 94 160 209 101 108 124 342 189 174 208 145 66 136 147 240 246 271 311 270 270 359 337 350 331 272 209 190
278 258 235 201 192 176 162 92 215 208 283 142 86 103 235 190 162 133 161 191 213 168 154 137 283 324 59 159 120 154 47 165 103 29 32 284 302 317 333 356 359 10 85 143 178
292 255 190 181 179 171 84 236 245 225 329 149 143 142 185 203 153 147 179 211 218 183 154 200 76 3 298 81 27 112 157 42 14 58 326 304 293 254 331 326 341 355 35 106 160
134 182 172 157 158 160 170 234 276 274 241 179 186 148 199 175 173 184 195 251 214 148 118 145 103 289 39 42 112 20 37 54 111 108 158 294 283 225 280 278 301 325 64 119 164
125 79 157 153 91 46 177 206 305 288 257 280 151 136 167 155 145 207 204 241 158 141 164 177 127 128 107 319 279 92 101 119 106 278 63 151 273 294 294 297 327 2 15 98 133
102 88 161 158 139 268 281 276 250 297 285 354 310 178 77 131 116 181 197 42 113 133 162 184 17 58 5 351 357 60 18 89 97 100 192 140 263 319 323 309 281 346 0 211 201
178 86 150 228 182 139 96 274 282 292 262 253 233 97 105 44 8 134 92 19 56 99 108 102 97 149 182 191 156 90 5 92 138 98 184 220 285 301 277 271 264 254 244 226 213
188 169 156 207 257 191 161 284 297 331 289 276 207 216 150 101 43 65 37 15 40 55 62 91 115 139 191 158 168 168 151 53 83 169 171 248 210 272 257 249 253 262 252 232 215
48 96 141 141 258 162 160 243 218 230 226 287 191 167 107 146 171 187 139 135 196 18 68 14 136 129 97 353 320 206 173 164 203 161 250 300 281 203 308 282 249 247 256 248 249
26 25 308 342 96 116 209 235 243 183 231 240 190 114 102 160 131 105 123 120 132 126 99 75 124 97 219 6 28 354 224 151 143 107 167 213 250 319 312 296 243 226 240 246 246
Height
1519 1518 1518 1517 1517 1517 1516 1516 1515 1515 1514 1515 1516 1517 1516 1516 1517 1519 1518 1518 1518 1518 1517 1516 1516 1514 1515 1514 1515 1515 1523 1530 1525 1525 1518 1517 1520 1522 1524 1525 1528 1530 1532 1535 1540
1518 1518 1518 1517 1517 1516 1516 1516 1515 1515 1515 1515 1515 1516 1516 1515 1516 1519 1520 1518 1518 1519 1518 1517 1517 1516 1517 1515 1516 1517 1526 1521 1516 1516 1518 1517 1520 1522 1525 1528 1531 1533 1535 1539 1542
1518 1518 1517 1517 1517 1516 1515 1515 1515 1515 1515 1515 1515 1516 1516 1515 1516 1518 1518 1518 1519 1518 1520 1519 1518 1518 1517 1517 1516 1517 1522 1513 1516 1516 1517 1518 1520 1522 1524 1529 1527 1530 1535 1540 1543
1518 1517 1517 1516 1516 1516 1515 1515 1515 1515 1515 1515 1515 1516 1516 1516 1521 1517 1518 1518 1518 1519 1520 1520 1520 1521 1521 1521 1518 1519 1511 1512 1513 1516 1518 1519 1520 1522 1522 1524 1525 1529 1533 1538 1543
1518 1517 1516 1516 1515 1515 1515 1514 1514 1515 1515 1515 1516 1516 1517 1518 1517 1517 1517 1518 1519 1520 1521 1522 1522 1523 1522 1518 1517 1517 1509 1510 1512 1515 1518 1519 1520 1521 1521 1522 1526 1531 1535 1539 1543
1517 1516 1516 1516 1515 1515 1514 1514 1513 1514 1515 1515 1516 1516 1517 1519 1518 1517 1518 1519 1520 1521 1522 1522 1523 1524 1521 1518 1515 1513 1512 1511 1511 1513 1516 1519 1520 1520 1521 1522 1527 1531 1536 1540 1544
1517 1516 1515 1515 1515 1514 1513 1514 1513 1513 1514 1515 1516 1516 1517 1518 1518 1518 1519 1519 1519 1521 1521 1522 1524 1524 1520 1515 1513 1513 1514 1512 1514 1515 1517 1517 1521 1520 1521 1520 1526 1532 1537 1541 1543
1516 1515 1515 1514 1514 1513 1513 1513 1513 1513 1514 1514 1515 1516 1516 1517 1518 1518 1519 1520 1520 1520 1521 1523 1522 1521 1518 1516 1514 1517 1518 1530 1514 1515 1517 1520 1533 1517 1520 1520 1525 1530 1534 1538 1542
1516 1515 1514 1513 1513 1513 1513 1512 1512 1513 1514 1514 1516 1516 1516 1516 1517 1518 1520 1520 1520 1521 1520 1520 1519 1519 1518 1522 1532 1530 1541 1531 1521 1517 1518 1520 1522 1516 1519 1522 1524 1527 1532 1536 1540
1515 1514 1514 1513 1513 1512 1512 1512 1512 1513 1514 1515 1515 1519 1514 1515 1515 1516 1518 1520 1520 1519 1519 1519 1520 1524 1527 1535 1557 1543 1540 1532 1530 1518 1519 1522 1519 1516 1518 1522 1524 1523 1529 1532 1532
1514 1513 1513 1512 1512 1512 1513 1513 1516 1516 1513 1513 1514 1513 1512 1513 1514 1515 1517 1518 1519 1520 1524 1523 1532 1539 1532 1530 1530 1531 1535 1536 1522 1514 1519 1522 1520 1515 1517 1520 1522 1524 1526 1527 1525
1512 1512 1512 1512 1512 1512 1512 1513 1514 1517 1513 1510 1511 1511 1511 1513 1514 1514 1516 1520 1520 1525 1524 1531 1539 1527 1526 1525 1529 1531 1532 1529 1521 1516 1519 1519 1518 1510 1511 1508 1512 1516 1520 1521 1527
1511 1511 1511 1511 1511 1513 1513 1514 1514 1513 1514 1509 1509 1510 1511 1513 1513 1514 1517 1518 1520 1525 1528 1536 1528 1524 1524 1525 1527 1529 1529 1528 1526 1519 1517 1519 1525 1512 1506 1508 1511 1514 1513 1516 1518
1509 1510 1510 1511 1514 1512 1514 1514 1513 1513 1524 1512 1509 1509 1511 1512 1513 1514 1516 1519 1521 1526 1529 1530 1523 1522 1523 1525 1528 1539 1520 1522 1522 1529 1545 1526 1558 1525 1510 1507 1507 1505 1507 1505 1510
1508 1508 1509 1510 1511 1512 1515 1513 1513 1514 1544 1508 1507 1507 1508 1511 1512 1512 1515 1517 1522 1524 1528 1531 1523 1523 1526 1523 1522 1531 1520 1525 1525 1535 1537 1537 1552 1530 1514 1510 1502 1497 1498 1498 1503
1506 1506 1508 1509 1510 1512 1512 1513 1514 1528 1532 1507 1503 1505 1508 1509 1509 1511 1514 1517 1519 1523 1525 1525 1520 1519 1519 1516 1518 1519 1522 1534 1543 1549 1565 1542 1550 1539 1523 1510 1498 1489 1489 1489 1495
1504 1504 1506 1507 1510 1511 1511 1513 1530 1537 1504 1509 1507 1505 1508 1511 1510 1510 1514 1520 1528 1541 1538 1528 1520 1516 1515 1519 1520 1525 1542 1572 1568 1579 1570 1549 1553 1531 1507 1501 1496 1486 1485 1481 1489
1501 1502 1503 1506 1508 1509 1511 1516 1531 1508 1507 1500 1503 1506 1512 1510 1511 1512 1518 1527 1520 1526 1547 1545 1545 1516 1514 1516 1522 1532 1539 1569 1569 1583 1570 1549 1547 1521 1500 1496 1488 1480 1478 1480 1486
1499 1500 1502 1504 1507 1509 1512 1531 1519 1507 1497 1500 1503 1511 1513 1509 1511 1512 1518 1525 1518 1518 1535 1542 1534 1513 1512 1513 1516 1530 1546 1541 1570 1578 1577 1562 1535 1509 1498 1496 1492 1487 1485 1484 1487
1498 1499 1501 1502 1506 1509 1514 1523 1510 1500 1497 1497 1507 1508 1520 1513 1514 1516 1520 1510 1510 1509 1512 1523 1537 1517 1517 1515 1518 1519 1531 1551 1564 1569 1566 1565 1555 1545 1515 1508 1500 1495 1491 1490 1491
1498 1499 1500 1502 1506 1508 1521 1518 1505 1496 1497 1498 1501 1507 1507 1509 1512 1519 1515 1506 1503 1508 1511 1521 1529 1529 1520 1527 1532 1534 1539 1554 1561 1571 1578 1584 1558 1525 1521 1512 1505 1500 1495 1494 1495
1498 1499 1500 1502 1507 1511 1515 1508 1502 1496 1495 1493 1493 1494 1501 1505 1512 1516 1514 1507 1501 1504 1516 1516 1534 1543 1533 1528 1525 1525 1534 1546 1564 1564 1577 1573 1557 1516 1515 1511 1507 1503 1501 1498 1499
1497 1499 1502 1503 1513 1514 1508 1504 1501 1497 1494 1492 1492 1490 1493 1500 1510 1508 1507 1503 1502 1504 1511 1512 1537 1556 1548 1540 1529 1533 1534 1544 1550 1558 1567 1570 1553 1515 1512 1510 1506 1504 1503 1502 1502
1498 1502 1504 1504 1505 1506 1506 1504 1501 1495 1494 1492 1491 1491 1495 1503 1503 1504 1505 1503 1502 1504 1504 1506 1536 1540 1555 1542 1536 1536 1534 1537 1545 1558 1557 1558 1539 1521 1515 1512 1507 1506 1505 1504 1505
1497 1498 1499 1506 1504 1503 1504 1504 1502 1502 1493 1490 1491 1491 1494 1504 1505 1508 1506 1504 1503 1504 1506 1511 1534 1532 1532 1528 1531 1531 1531 1532 1536 1538 1544 1536 1536 1523 1517 1513 1510 1509 1508 1506 1505
1497 1498 1498 1499 1499 1501 1505 1502 1501 1499 1497 1492 1492 1492 1492 1500 1501 1507 1505 1507 1508 1506 1511 1516 1536 1531 1536 1532 1532 1531 1528 1528 1530 1532 1534 1533 1532 1517 1514 1509 1508 1508 1509 1509 1510
1498 1498 1498 1500 1499 1501 1502 1498 1494 1493 1490 1489 1489 1493 1496 1496 1496 1498 1501 1502 1504 1508 1517 1522 1534 1543 1546 1540 1537 1546 1530 1525 1528 1529 1529 1537 1526 1517 1512 1508 1506 1507 1509 1509 1510